星链-5734 (STARLINK-5734 )

导读 | 星芒AI

STARLINK-5734 是 SpaceX Starlink 项目中的一颗低轨道通信卫星,属于该星座的多个批次之一。该卫星旨在为全球用户提供高速互联网服务,尤其关注网络覆盖不足的地区。它运行在约 550 公里的高度,采用先进的通信技术,支持低延迟和高带宽的数据传输。STARLINK-5734 与其它 Starlink 卫星共同构建了一个庞大的卫星网络,助力实现全球互联网连接的愿景。

基本信息
目录编号:
55612
目录名称:
STARLINK-5734
国际标识:
2023-020AV
轨道中心:
EARTH
卫星名称:
星链-5734
卫星全名:
星链-5734 (STARLINK-5734 )
卫星状态:
在轨 (已飞行1043 天)
发射日期:
2023-02-12 UTC
国别 :
美国 (US)
星等 :
--
轨道信息
数据来源 国际轨道数据 AOE轨道数据
星历时间 2025-12-21T13:00:47+0800
9小时前
查看轨道信息
2025-12-15T10:00:00+0800
6天前
查看轨道信息
半长轴 6937.232km 6937.216km
偏心率 0.0001425 0.000169
轨道倾角 43.005° 43.002°
近地点辐角 263.900° 292.247°
升交点赤经 58.117° 91.401°
平近点角 96.168° 15.940°
近地点 558.106km 557.908km
远地点 560.084km 560.254km
周期 95.838分钟 95.838分钟
每日圈数 15.025312 15.025364
详细信息
固有亮度:
5
最大亮度:
2.5
卫星平台:
Starlink v1.5
覆盖范围:
全球
运营商:
太空探索技术公司
运营商所在国:
美国
制造商(研发单位):
太空探索技术公司
制造商所在国:
美国
使用方式:
暂无
卫星简介
星链(Starlink)计划是由太空探索技术公司(SpaceX)提出的一个巨型低轨卫星互联网星座项目,计划在2019年至2024年间在太空搭建由约1.2万颗卫星组成的“星链”网络,其中1584颗将部署在地球上空550千米处的近地轨道,并从2020年开始工作。该卫星仍在工作。
2D轨道图
3D轨道图
轨道高度分析图
轨道倾角分析图
轨道综合分析图
查看轨道综合分析图